Simultaneous Nadir Overpasses (SNOs) Predictions

Prediction of SNOs between METOP-A and NOAA-19 Satellite Orbit:

Table of predicted SNOs for the next 14.0 days since TLE Epoch: 9/21/2014
Index Date (METOP-A) Time (METOP-A) Lat,Lon (METOP-A) SZA (METOP-A ) Date (NOAA-19) Time (NOAA-19) Lat,Lon (NOAA-19) SZA (NOAA-19 ) Distance(km) Time Diff (sec)
1 09/29/2014 11:02:49 74.33, 9.82 76.73 09/29/2014 11:01:38 74.33, 9.72 76.73 3.03 71
2 09/29/2014 11:53:31 -74.30, 177.07 103.29 09/29/2014 11:52:33 -74.30, 177.08 103.29 0.31 58
3 09/29/2014 12:44:12 74.26, -15.69 76.69 09/29/2014 12:43:40 74.26, -15.61 76.69 2.60 32
4 09/29/2014 13:34:53 -74.28, 151.68 103.29 09/29/2014 13:34:36 -74.28, 151.62 103.29 1.91 17
5 09/29/2014 14:25:34 74.24, -41.09 76.69 09/29/2014 14:25:43 74.24, -41.07 76.69 0.60 9
6 09/29/2014 15:16:16 -74.21, 126.16 103.33 09/29/2014 15:16:38 -74.21, 126.28 103.33 3.62 22
7 09/29/2014 16:06:56 74.22, -66.48 76.70 09/29/2014 16:07:46 74.22, -66.53 76.70 1.51 50
8 09/29/2014 16:57:38 -74.19, 100.77 103.32 09/29/2014 16:58:41 -74.19, 100.82 103.32 1.54 63
9 09/29/2014 17:48:31 73.55, -93.43 76.08 09/29/2014 17:49:36 73.57, -90.40 76.06 95.12 65




NCC Satellite Simultaneous Nadir Overpasses (SNOs) Prediction Service
